NIMIQ 4

Last updated on Thu Nov 21 2024 00:02:41 GMT+0000 (Coordinated Universal Time)

1 33373U 08044A 24325.32618860 -.00000219 00000+0 00000+0 0 9996 2 33373 0.0133 322.4709 0001697 284.9710 207.8560 1.00271977 59230
UTC large
Height (km)
Speed (km/s)
/
Latitude / Longitude
Inclination (degrees)
Orbital Period (minutes)
Azimuth
Elevation
Range (km)
Doppler Factor

Next 0 passes for location: London (51.5072 / 0.1276)

Sorry there are no passes over London.